Location: Newark
(34.9500°N, 139.9667°E)
Time: 14:45:20
(UTC+00:00)

Vanguard 1 Rocket - Pass Details

Date: 15 December 2019
Orbit: 651 x 4226 km, 34.3° (Epoch: 28 January)

Event Time Altitude Azimuth Distance (km) Brightness Sun altitude
Rises 05:53:15 0° 190° (S) 8,103 13.1 15.2°
Reaches altitude 10° 06:01:24 10° 176° (S) 7,350 12.7 14.0°
Maximum altitude 06:17:52 21° 136° (SE) 6,321 11.7 11.4°
Drops below altitude 10° 06:32:12 10° 96° (E) 6,503 11.3 9.1°
Sets 06:38:22 0° 83° (E) 7,001 11.4 8.1°
